Weather History for Ruston, LA

Change the Weather History Date:

Sunday, July 28, 2013

  Actual Average Record
Temperature  
Mean Temperature 75 °F -  
Max Temperature 88 °F 93 °F 105 °F (1930)
Min Temperature 63 °F 71 °F 63 °F (2013)
Cooling Degree Days 10    
Growing Degree Days 25 (Base 50)    
Moisture  
Dew Point 69 °F    
Average Humidity 81    
Maximum Humidity 100    
Minimum Humidity 48    
Precipitation  
Precipitation 0.00 in - - ()
Sea Level Pressure  
Sea Level Pressure 30.02 in    
Wind  
Wind Speed 1 mph (ENE)    
Max Wind Speed 7 mph    
Max Gust Speed -    
Visibility 7 miles    
Events      
Averages and records for this station are not official NWS values.
T = Trace of Precipitation, MM = Missing Value Source: NWS Daily Summary

Daily Weather History Graph

Daily Weather History Graph

Search for Another Location

Airport:

Trip Planner

Search our weather history database for the weather conditions in past years. The results will help you decide how hot, cold, wet, or windy it might be!

Date:

Astronomy

Jul. 28, 2013 Rise Set
Actual Time 6:22 AM CDT 8:11 PM CDT
Civil Twilight 5:55 AM CDT 8:38 PM CDT
Nautical Twilight 5:22 AM CDT 9:10 PM CDT
Astronomical Twilight 4:47 AM CDT 9:45 PM CDT
Moon No Moon Rise 12:38 PM CDT (7/28)
Length of Visible Light 14h 42m
Length of Day
13h 48m
Waning Gibbous, 60% of the Moon is Illuminated
Jul 28
Waning Gibbous
Jul 29
Last Quarter
Aug 6
New
Aug 14
First Quarter
Aug 20
Full

Hourly Weather History & Observations

Time (CDT) Temp. Heat Index Dew Point Humidity Pressure Visibility Wind Dir Wind Speed Gust Speed Precip Events Conditions
12:15 AM 68.0 °F - 68.0 °F 100% 29.99 in 1.8 mi Calm Calm - N/A   Mist
12:35 AM 68.0 °F - 68.0 °F 100% 29.99 in 2.5 mi Calm Calm - N/A   Clear
12:55 AM 67.3 °F - 67.3 °F 100% 29.99 in 2.0 mi Calm Calm - N/A   Clear
1:15 AM 67.8 °F - 67.8 °F 100% 29.99 in 4.0 mi Calm Calm - N/A   Clear
1:35 AM 68.0 °F - 68.0 °F 100% 29.99 in 2.0 mi Calm Calm - N/A   Clear
1:55 AM 68.0 °F - 68.0 °F 100% 29.99 in 1.8 mi Calm Calm - N/A   Mist
2:15 AM 67.6 °F - 67.6 °F 100% 29.99 in 0.8 mi Calm Calm - N/A   Mist
2:35 AM 66.9 °F - 66.9 °F 100% 29.99 in 1.2 mi Calm Calm - N/A   Mist
2:55 AM 67.1 °F - 67.1 °F 100% 29.99 in 2.0 mi Calm Calm - N/A   Clear
3:15 AM 66.6 °F - 66.6 °F 100% 29.99 in 3.0 mi Calm Calm - N/A   Clear
3:35 AM 66.2 °F - 66.2 °F 100% 29.99 in 1.2 mi Calm Calm - N/A   Mist
3:55 AM 66.0 °F - 66.0 °F 100% 29.99 in 2.5 mi Calm Calm - N/A   Clear
4:15 AM 65.7 °F - 65.7 °F 100% 29.99 in 2.0 mi Calm Calm - N/A   Clear
4:35 AM 65.8 °F - 65.8 °F 100% 29.99 in 3.0 mi Calm Calm - N/A   Clear
4:55 AM 64.8 °F - 64.8 °F 100% 30.00 in 1.8 mi Calm Calm - N/A   Mist
5:15 AM 64.6 °F - 64.6 °F 100% 30.00 in 2.5 mi Calm Calm - N/A   Clear
5:35 AM 64.8 °F - 64.8 °F 100% 30.00 in 1.0 mi Calm Calm - N/A   Mist
5:55 AM 64.4 °F - 64.4 °F 100% 30.00 in 1.5 mi Calm Calm - N/A   Mist
6:15 AM 64.4 °F - 64.4 °F 100% 30.01 in 2.5 mi Calm Calm - N/A   Clear
6:35 AM 64.4 °F - 64.4 °F 100% 30.01 in 4.0 mi Calm Calm - N/A   Clear
6:55 AM 63.9 °F - 63.9 °F 100% 30.02 in 2.5 mi Calm Calm - N/A   Clear
7:15 AM 64.9 °F - 64.9 °F 100% 30.03 in 4.0 mi Calm Calm - N/A   Clear
7:35 AM 66.0 °F - 66.0 °F 100% 30.04 in 5.0 mi Calm Calm - N/A   Clear
7:55 AM 68.5 °F - 68.5 °F 100% 30.04 in 5.0 mi Calm Calm - N/A   Clear
8:15 AM 70.3 °F - 70.3 °F 100% 30.04 in 7.0 mi Calm Calm - N/A   Clear
8:35 AM 72.1 °F - 72.1 °F 100% 30.04 in 10.0 mi Calm Calm - N/A   Clear
8:55 AM 74.5 °F - 74.5 °F 100% 30.06 in 10.0 mi NNE 3.5 mph - N/A   Clear
9:15 AM 76.1 °F - 74.8 °F 96% 30.06 in 10.0 mi NE 3.5 mph - N/A   Clear
9:35 AM 77.4 °F - 71.1 °F 81% 30.06 in 10.0 mi NNE 6.9 mph - N/A   Clear
9:55 AM 77.9 °F - 69.6 °F 76% 30.06 in 10.0 mi NE 6.9 mph - N/A   Clear
10:15 AM 79.7 °F - 69.8 °F 72% 30.05 in 10.0 mi ENE 6.9 mph - N/A   Clear
10:35 AM 79.9 °F - 69.4 °F 70% 30.05 in 10.0 mi ENE 4.6 mph - N/A   Clear
10:55 AM 81.3 °F 84.5 °F 69.1 °F 66% 30.05 in 10.0 mi ENE 6.9 mph - N/A   Scattered Clouds
11:15 AM 81.1 °F 84.4 °F 69.3 °F 67% 30.06 in 10.0 mi ENE 5.8 mph - N/A   Scattered Clouds
11:35 AM 81.7 °F 84.5 °F 67.8 °F 63% 30.06 in 10.0 mi NNE 3.5 mph - N/A   Scattered Clouds
11:55 AM 82.8 °F 85.3 °F 67.3 °F 59% 30.06 in 10.0 mi ESE 4.6 mph - N/A   Scattered Clouds
12:15 PM 83.1 °F 85.9 °F 67.6 °F 59% 30.05 in 10.0 mi East 3.5 mph - N/A   Scattered Clouds
12:35 PM 83.3 °F 85.9 °F 66.9 °F 58% 30.05 in 10.0 mi ENE 4.6 mph - N/A   Scattered Clouds
12:55 PM 83.8 °F 86.3 °F 66.7 °F 56% 30.04 in 10.0 mi SSE 3.5 mph - N/A   Scattered Clouds
1:15 PM 85.1 °F 87.9 °F 67.3 °F 55% 30.04 in 10.0 mi ENE 5.8 mph - N/A   Scattered Clouds
1:35 PM 85.5 °F 88.2 °F 66.9 °F 54% 30.04 in 10.0 mi ENE 5.8 mph - N/A   Clear
1:55 PM 86.4 °F 89.0 °F 67.1 °F 52% 30.04 in 10.0 mi Calm Calm - N/A   Clear
2:15 PM 84.9 °F 87.1 °F 66.0 °F 53% 30.03 in 10.0 mi ENE 4.6 mph - N/A   Scattered Clouds
2:35 PM 84.9 °F 87.1 °F 66.0 °F 53% 30.03 in 10.0 mi Calm Calm - N/A   Scattered Clouds
2:55 PM 86.5 °F 89.0 °F 66.6 °F 51% 30.03 in 10.0 mi East 6.9 mph - N/A   Scattered Clouds
3:15 PM 87.8 °F 90.0 °F 65.7 °F 48% 30.02 in 10.0 mi ESE 5.8 mph - N/A   Scattered Clouds
3:35 PM 87.3 °F 89.2 °F 65.1 °F 48% 30.02 in 10.0 mi ENE 4.6 mph - N/A   Scattered Clouds
3:55 PM 86.7 °F 89.6 °F 66.9 °F 52% 30.02 in 10.0 mi ENE 3.5 mph - N/A   Scattered Clouds
4:15 PM 85.3 °F 88.2 °F 67.5 °F 55% 30.02 in 10.0 mi Calm Calm - N/A   Scattered Clouds
4:35 PM 87.6 °F 90.8 °F 67.5 °F 51% 30.02 in 10.0 mi ENE 5.8 mph - N/A   Clear
4:55 PM 87.8 °F 90.7 °F 66.9 °F 50% 30.02 in 10.0 mi East 6.9 mph - N/A   Clear
5:15 PM 86.9 °F 89.6 °F 66.6 °F 51% 30.02 in 10.0 mi NE 3.5 mph - N/A   Clear
5:35 PM 86.9 °F 89.9 °F 67.1 °F 52% 30.02 in 10.0 mi ENE 4.6 mph - N/A   Clear
5:55 PM 87.1 °F 90.2 °F 67.5 °F 52% 30.02 in 10.0 mi ENE 3.5 mph - N/A   Clear
6:15 PM 86.9 °F 89.9 °F 67.5 °F 52% 30.02 in 10.0 mi East 3.5 mph - N/A   Clear
6:35 PM 86.4 °F 90.4 °F 69.1 °F 56% 30.02 in 10.0 mi East 3.5 mph - N/A   Clear
6:55 PM 85.6 °F 89.4 °F 68.7 °F 57% 30.01 in 10.0 mi East 3.5 mph - N/A   Clear
7:15 PM 85.1 °F 89.4 °F 70.0 °F 60% 30.01 in 10.0 mi East 3.5 mph - N/A   Clear
7:35 PM 84.0 °F 88.7 °F 70.9 °F 64% 30.01 in 10.0 mi East 3.5 mph - N/A   Clear
7:55 PM 82.8 °F 87.4 °F 71.4 °F 68% 30.01 in 10.0 mi Calm Calm - N/A   Clear
8:15 PM 80.1 °F 84.2 °F 72.9 °F 79% 30.02 in 10.0 mi Calm Calm - N/A   Clear
8:35 PM 76.5 °F - 76.5 °F 100% 30.02 in 10.0 mi Calm Calm - N/A   Clear
8:55 PM 77.0 °F - 76.8 °F 99% 30.02 in 10.0 mi Calm Calm - N/A   Clear
9:15 PM 74.3 °F - 74.3 °F 100% 30.02 in 7.0 mi Calm Calm - N/A   Clear
9:35 PM 75.7 °F - 75.7 °F 100% 30.03 in 10.0 mi Calm Calm - N/A   Clear
9:55 PM 74.8 °F - 74.8 °F 100% 30.03 in 10.0 mi Calm Calm - N/A   Clear
10:15 PM 76.6 °F - 73.4 °F 90% 30.04 in 10.0 mi East 4.6 mph - N/A   Clear
10:35 PM 74.7 °F - 72.7 °F 94% 30.04 in 10.0 mi Calm Calm - N/A   Clear
10:55 PM 72.5 °F - 72.5 °F 100% 30.05 in 7.0 mi Calm Calm - N/A   Clear
11:15 PM 72.5 °F - 72.5 °F 100% 30.05 in 7.0 mi Calm Calm - N/A   Clear
11:35 PM 71.6 °F - 71.6 °F 100% 30.05 in 5.0 mi Calm Calm - N/A   Clear
11:55 PM 70.9 °F - 70.9 °F 100% 30.06 in 5.0 mi Calm Calm - N/A   Clear